Home > Weather > Qyzylorda > Past weeks

Flag for Kazakhstan Past Weather in Qyzylorda, Kazakhstan — Yesterday and Last 2 Weeks

Now
82 °F

Scattered clouds.


Feels Like: 81 °F
Forecast: 67 / 84 °F
Wind: 13 mph from Northwest

Location: Kzyl-Orda

Current Time: Jul 28, 2016 at 8:37:02 PM

Latest Report: Jul 28, 2016 at 8:00 PM


Visibility: N/A

Pressure: 29.68 "Hg

Humidity: 37%

Dew Point: 54 °F

Location of QyzylordaLocation

Past Weather in Qyzylorda — Graph

°F

Qyzylorda Temperature Yesterday

Maximum temperature yesterday: 95 °F (at 2:30 PM)
Minimum temperature yesterday: 70 °F (at 6:00 AM)
Average temperature yesterday: 83 °F

High & Low Weather Summary for the Past Weeks

 TemperatureHumidityPressure
High99 °F (Jul 16, 3:30 PM)88% (Jul 28, 6:30 AM)29.86 "Hg (Jul 28, 6:30 AM)
Low63 °F (Jul 17, 5:30 AM)13% (Jul 16, 6:30 PM)29.47 "Hg (Jul 19, 4:30 PM)
Average83 °F38%29.67 "Hg
* Reported Jul 13 7:00 PM — Jul 28 7:30 PM, Qyzylorda, Weather by CustomWeather, © 2016

Note: Actual official high and low records may vary slightly from our data, if they occured in-between our weather recording intervals... More about our weather records

Advertising

Qyzylorda Weather History for the Previous 24 Hours

Scroll right to see more
 ConditionsComfort  
Time TempWeatherWind HumidityBarometerVisibility
7:30 PM
Thu, Jul 28
82 °FScattered clouds.13 mph37%29.68 "HgN/A
7:00 PM84 °FScattered clouds.15 mph35%29.68 "HgN/A
6:30 PM82 °FPartly sunny.17 mph37%29.68 "HgN/A
6:00 PM84 °FPartly sunny.17 mph35%29.68 "HgN/A
5:30 PM82 °FPartly sunny.17 mph35%29.68 "HgN/A
5:00 PM82 °FPartly sunny.17 mph37%29.68 "HgN/A
4:30 PM82 °FPartly sunny.17 mph37%29.68 "HgN/A
4:00 PM84 °FPartly sunny.13 mph37%29.68 "HgN/A
3:30 PM82 °FPartly sunny.15 mph40%29.68 "HgN/A
3:00 PM81 °FPartly sunny.15 mph42%29.68 "HgN/A
2:30 PM81 °FPartly sunny.15 mph45%29.68 "HgN/A
2:00 PM81 °FPartly sunny.17 mph45%29.68 "HgN/A
1:30 PM81 °FPartly sunny.15 mph45%29.68 "HgN/A
1:00 PM79 °FScattered clouds.13 mph51%29.68 "HgN/A
12:30 PM79 °FScattered clouds.13 mph51%29.68 "HgN/A
12:00 PM77 °FScattered clouds.13 mph54%29.68 "HgN/A
11:30 AM77 °FScattered clouds.13 mph57%29.68 "HgN/A
11:00 AM75 °FPassing clouds.13 mph61%29.68 "HgN/A
10:30 AM75 °FPassing clouds.13 mph61%29.65 "HgN/A
10:00 AM73 °FPassing clouds.10 mph65%29.68 "HgN/A
9:30 AM72 °FPassing clouds.10 mph73%29.68 "HgN/A
9:00 AM70 °FSunny.10 mph78%29.65 "Hg10 mi
8:30 AM70 °FSunny.10 mph78%29.65 "Hg10 mi
8:00 AM66 °FSunny.8 mph88%29.65 "Hg10 mi
7:30 AM66 °FBroken clouds.8 mph83%29.65 "HgN/A
7:00 AM66 °FPartly cloudy.8 mph83%29.65 "HgN/A
6:30 AM64 °FPartly cloudy.3 mph88%29.65 "HgN/A
6:00 AM66 °FPartly cloudy.1 mph83%29.62 "HgN/A
5:30 AM66 °FPartly cloudy.3 mph83%29.62 "HgN/A
5:00 AM68 °FPartly cloudy.3 mph78%29.62 "HgN/A
4:00 AM68 °FPartly cloudy.3 mph78%29.62 "HgN/A
3:00 AM68 °FPartly cloudy.1 mph78%29.59 "HgN/A
2:00 AM70 °FPartly cloudy.3 mph69%29.59 "HgN/A
1:00 AM72 °FPartly cloudy.3 mph65%29.62 "HgN/A
12:00 AM73 °FPartly cloudy.6 mph65%29.62 "HgN/A
11:00 PM
Wed, Jul 27
75 °FPartly cloudy.1 mph61%29.59 "HgN/A
10:00 PM77 °FPartly sunny.3 mph61%29.59 "HgN/A
9:00 PM81 °FPartly sunny.1 mph54%29.59 "HgN/A
8:30 PM81 °FPartly sunny.1 mph54%29.59 "HgN/A
8:00 PM81 °FPartly sunny.3 mph58%29.59 "HgN/A
Weather by CustomWeather, © 2016

See weather overviewHow to use our weather pages